Home   Weather   Wunstorf   Past weeks

Flag for Germany Past Weather in Wunstorf, Lower Saxony, Germany — Yesterday and Last 2 Weeks

Now
28 °F

Partly sunny.


Feels Like: 28 °F
Forecast: 20 / 34 °F
Wind: 1 mph from Southeast

Location: Wunstorf Airport

Current Time: Jan 19, 2017 at 10:00:59 am

Latest Report: Jan 19, 2017 at 9:20 am


Visibility: N/A

Pressure: 30.69 "Hg

Humidity: 86%

Dew Point: 25 °F

Location of WunstorfLocation

Past Weather in Wunstorf — Graph

°F

Wunstorf Temperature Yesterday

Maximum temperature yesterday: 28 °F (at 1:20 pm)
Minimum temperature yesterday: 25 °F (at 4:20 am)
Average temperature yesterday: 27 °F

High & Low Weather Summary for the Past Weeks

 TemperatureHumidityPressure
High45 °F (Jan 11, 3:10 pm)100% (Jan 7, 5:20 pm)30.77 "Hg (Jan 7, 5:20 pm)
Low12 °F (Jan 6, 8:20 am)51% (Jan 4, 10:20 pm)28.94 "Hg (Jan 13, 4:20 am)
Average31 °F85%30.11 "Hg
* Reported Jan 4 8:20 am — Jan 19 8:20 am, Wunstorf, Weather by CustomWeather, © 2017

Note: Actual official high and low records may vary slightly from our data, if they occured in-between our weather recording intervals... More about our weather records

Advertising

Wunstorf Weather History for the Previous 24 Hours

Scroll right to see more
 ConditionsComfort  
Time TempWeatherWind HumidityBarometerVisibility
8:20 am
Thu, Jan 19
27 °FPartly cloudy.2 mph93%30.66 "HgN/A
7:20 am27 °FPassing clouds.3 mph86%30.66 "HgN/A
6:20 am27 °FPassing clouds.1 mph86%30.66 "HgN/A
5:20 am27 °FPassing clouds.2 mph86%30.66 "HgN/A
4:20 am28 °FChilly.5 mph86%30.69 "HgN/A
3:20 am28 °FChilly.2 mph86%30.69 "HgN/A
2:20 am27 °FChilly.2 mph86%30.69 "HgN/A
1:20 am27 °FChilly.3 mph93%30.66 "HgN/A
12:20 am28 °FChilly.1 mph86%30.69 "HgN/A
11:20 pm
Wed, Jan 18
28 °FChilly.5 mph86%30.69 "HgN/A
10:20 pm28 °FChilly.6 mph86%30.69 "HgN/A
9:20 pm28 °FChilly.3 mph86%30.69 "HgN/A
8:20 pm28 °FChilly.3 mph86%30.69 "HgN/A
7:20 pm28 °FPassing clouds.1 mph86%30.69 "HgN/A
6:20 pm28 °FPassing clouds.2 mph86%30.69 "HgN/A
5:20 pm28 °FPartly cloudy.1 mph86%30.72 "HgN/A
4:20 pm28 °FPartly sunny.2 mph86%30.72 "Hg6 mi
3:20 pm28 °FPartly sunny.1 mph86%30.72 "Hg6 mi
2:20 pm28 °FBroken clouds.1 mph86%30.72 "HgN/A
1:20 pm28 °FPartly sunny.1 mph86%30.72 "HgN/A
12:20 pm27 °FPartly sunny.No wind86%30.74 "Hg5 mi
11:20 am27 °FBroken clouds.2 mph86%30.74 "Hg4 mi
10:39 am27 °FBroken clouds.2 mph86%30.74 "Hg4 mi
10:20 am27 °FPartly sunny.3 mph86%30.74 "Hg5 mi
Weather by CustomWeather, © 2017

See weather overviewHow to use our weather pages